Find Starlink 36473

NORAD ID: 67325 Int'l Des: 2026-002 Owner: SPXS Country: US Constellation: starlink operational
LEOCIRCULAR

現在のビュー

3D地球を読み込み中...

Starlink 36473について

説明を読み込み中...

次回通過

Passes for default location (London). Set your location on the main map for personalized predictions.

高度履歴

Loading altitude history...

軌道要素

1 67325U 26002W 26149.46358864 .00018771 00000-0 68979-3 0 9995
2 67325 43.0003 228.9751 0001597 265.8738 94.1931 15.27585130 23593
Epoch: May 29, 2026 • Age: 22 hours

現在のステータス

高度 482.7 km
速度 7.63 km/s
衛星直下点 -0.19°S, 160.71°W
打ち上げ日 Jan 4, 2026
運用期間 0.3 years
タイプ internet

技術仕様

分類 Payload
質量 575.00 kg
乾燥質量 530.00 kg
総質量 575.00 kg
長さ 0.30 m
直径 4.10 m
スパン 29.00 m
形状 Box + pan
製造者 SPXS
バスタイプ Starlink V2MO
フェーズステータス In Orbit
所有者/国 SPXS/US

Most Searched